[[{"header":{"parameterUnit":"m.s-1","parameterCategory":2,"la1":30.2991,"la2":30.254,"lo1":-89.0895,"lo2":-89.0444,"dy":0.0017,"dx":0.0017,"nx":28,"ny":28,"refTime":"2025-06-15T21:00:00:Z","depth":"0","parameterNumber":2,"parameterNumberName":"U-component_of_CURRENTS"},"data":[0,0,0,0,0,0,0,0,0,0,0,0,0,0,0,0,0,0,0,0,0,0,0,0,0,0,0,0,0,0,0,0,0,0,0,0,0,0,0,0,0,0,0,0,0,0,0,0,0,0,0,0,0,0,0,0,0,0,0.2293,0.2293,0,0.2312,0.2313,0.2313,0.2296,0.2295,0.2295,0.2294,0.226,0.226,0.2259,0,0,0,0,0,0,0,0,0,0,0,0,0,0.2209,0.2211,0.2293,0.2293,0.2293,0.2312,0.2313,0.2313,0.2296,0.2295,0.2295,0.2294,0.226,0.226,0.2259,0,0,0,0,0,0,0,0,0,0,0,0,0,0.2238,0.2212,0.2293,0.2288,0.2288,0.2312,0.2313,0.2313,0.2296,0.2295,0.2294,0.2294,0.226,0.226,0.2259,0.2275,0,0,0.2258,0.2258,0,0,0,0,0,0,0,0,0.2237,0.2241,0.2288,0.2288,0.2288,0.2301,0.2271,0.2298,0.2296,0.2292,0.2294,0.2293,0.227,0.2269,0.2274,0.2273,0.2272,0.2258,0.2257,0.2257,0.2257,0,0,0,0,0,0,0,0.2235,0.224,0.23,0.2289,0.2289,0.2274,0.2277,0.2276,0.2284,0.2292,0.2291,0.2295,0.2269,0.2275,0.2273,0.2271,0.2258,0.2257,0.2257,0.2257,0.2307,0.2309,0,0,0,0,0,0,0.2237,0.2239,0.2299,0.23,0.226,0.2277,0.228,0.2297,0.2286,0.2284,0.2296,0.2294,0.2276,0.2274,0.2272,0.2297,0.2257,0.2257,0.2256,0.2306,0.2308,0.2309,0,0,0,0,0,0,0.2236,0.2243,0.2298,0.2269,0.2275,0.2279,0.2299,0.2298,0.2299,0.2289,0.2286,0.2296,0.2275,0.2272,0.2276,0.2295,0.2256,0.2256,0.2304,0.2306,0.2308,0.2343,0,0,0,0,0,0,0.2233,0.2243,0.2249,0.227,0.2277,0.2307,0.23,0.2299,0.2303,0.2301,0.2288,0.2285,0.2274,0.2277,0.2276,0.2294,0.2256,0.2302,0.2305,0.2308,0.234,0.2347,0.2352,0,0,0,0,0,0.223,0.224,0.225,0.2257,0.2289,0.2307,0.2309,0.2308,0.2304,0.2305,0.2305,0.2285,0.2296,0.2278,0.2276,0.2294,0.23,0.2304,0.2307,0.2337,0.2346,0.2352,0,0,0,0,0,0,0.2193,0.2241,0.2251,0.2271,0.2287,0.2305,0.2306,0.231,0.2312,0.2309,0.2298,0.2295,0.2309,0.2302,0.2282,0.2322,0.2298,0.2301,0.2322,0.2329,0.2335,0.231,0.2255,0,0,0,0,0,0.2195,0.2223,0.2254,0.2268,0.228,0.2296,0.2301,0.2304,0.2313,0.2312,0.2309,0.2313,0.2327,0.2325,0.2331,0.2345,0.2325,0.2361,0.2367,0.2372,0.2353,0.2367,0.2372,0.2321,0.2321,0.2321,0,0,0.2181,0.2213,0.2225,0.2264,0.2279,0.2294,0.2296,0.2309,0.2316,0.2309,0.2316,0.233,0.2337,0.2358,0.2364,0.2349,0.2375,0.2376,0.238,0.2359,0.2371,0.2376,0.238,0.2324,0.2324,0.2323,0,0,0.2169,0.2203,0.2221,0.2241,0.2271,0.2287,0.2292,0.2315,0.2319,0.2337,0.2342,0.2364,0.2376,0.2388,0.2396,0.2439,0.2409,0.2452,0.2456,0.2471,0.2475,0.2478,0.2449,0.2449,0.2453,0.2453,0.2453,0,0.2144,0.2181,0.2223,0.2243,0.2256,0.2285,0.2295,0.2311,0.2329,0.2341,0.2339,0.2388,0.2389,0.2424,0.244,0.2449,0.2439,0.2426,0.2477,0.2479,0.2481,0.2451,0.2451,0.2455,0.2455,0.2455,0.2454,0,0.2153,0.2174,0.2185,0.223,0.225,0.2263,0.2297,0.2314,0.2332,0.2353,0.2392,0.2411,0.2432,0.2456,0.2455,0.2487,0.2468,0.2484,0.2451,0.2488,0.2455,0.2453,0.2458,0.2457,0.2457,0.2456,0,0,0.2099,0.2177,0.2173,0.2187,0.2244,0.2252,0.2286,0.232,0.2331,0.2374,0.2392,0.2441,0.2456,0.2466,0.2485,0.2501,0.2508,0.2496,0.2496,0.2453,0.251,0.2426,0.2415,0.2538,0.2539,0.2539,0.2476,0,0.2081,0.2114,0.2162,0.2173,0.2189,0.2237,0.226,0.2297,0.2333,0.2358,0.241,0.2434,0.246,0.2469,0.2496,0.2509,0.2508,0.252,0.2491,0.2489,0.2399,0.2413,0.2304,0.2233,0.2474,0.2474,0.2474,0,0.206,0.2089,0.2108,0.2147,0.2157,0.2168,0.2208,0.2234,0.2297,0.2325,0.238,0.2414,0.2454,0.2464,0.2497,0.2507,0.2497,0.2506,0.2504,0.2406,0.2403,0.2239,0.2221,0.214,0.2471,0.2471,0.2472,0,0.1994,0.2036,0.2049,0.2065,0.2125,0.2132,0.2159,0.222,0.2243,0.23,0.2321,0.2386,0.2403,0.2434,0.2454,0.2475,0.247,0.2502,0.2411,0.2404,0.229,0.2272,0.2174,0.2498,0.2498,0.2499,0.2499,0,0.1956,0.1955,0.2013,0.2017,0.2019,0.2075,0.2087,0.2126,0.2182,0.2208,0.2289,0.2309,0.2398,0.2417,0.2436,0.2406,0.2453,0.2391,0.2384,0.2299,0.2283,0.2192,0.2187,0.2496,0.2497,0.2497,0.2498,0,0.1886,0.1927,0.1936,0.1983,0.1992,0.1991,0.2042,0.2055,0.2112,0.2143,0.2159,0.2247,0.227,0.2328,0.236,0.2358,0.2265,0.2322,0.2192,0.217,0.2011,0.2014,0.1806,0.1775,0.221,0.2208,0.2206,0,0.1861,0.1862,0.1897,0.1899,0.1918,0.1932,0.1947,0.2011,0.2031,0.2099,0.2104,0.2144,0.2163,0.2173,0.217,0.2157,0.2138,0.2045,0.2068,0.1961,0.196,0.1885,0.1871,0.1929,0.1925,0.1922,0.1919,0,0.1814,0.1825,0.1839,0.1839,0.1844,0.1856,0.1878,0.1884,0.1955,0.1972,0.199,0.2007,0.2015,0.1962,0.1945,0.1941,0.1919,0.1973,0.191,0.1756,0.1619,0.1599,0.1991,0.1889,0.1892,0.1894,0.1895,0.1897,0.1776,0.1769,0.1782,0.1773,0.1779,0.1769,0.175,0.1777,0.1781,0.1783,0.185,0.1817,0.1799,0.1761,0.1736,0.1607,0.1672,0.1571,0.1588,0.1523,0.1468,0.1764,0.1633,0.1634,0.1635,0.1636,0.1637,0,0.1725,0.1721,0.1715,0.1697,0.1669,0.1697,0.1694,0.166,0.1624,0.1636,0.1629,0.1543,0.1462,0.1437,0.1321,0.1243,0.1208,0.121,0.1101,0.1121,0.1414,0.1379,0.1128,0.1128,0.1128,0.1128,0.1129,0.1129,0.1699,0.1671,0.1663,0.1593,0.1575,0.1514,0.1495,0.1454,0.1437,0.1342,0.1268,0.1259,0.1211,0.107,0.0948,0.0945,0.0891,0.0789,0.0852,0.1082,0.1118,0.1152,0.1116,0.0814,0.0814,0.0486,0.0484,0.0482]},{"header":{"parameterUnit":"m.s-1","parameterCategory":2,"la1":30.2991,"la2":30.254,"lo1":-89.0895,"lo2":-89.0444,"dy":0.0017,"dx":0.0017,"nx":28,"ny":28,"refTime":"2025-06-15T21:00:00:Z","depth":"0","parameterNumber":3,"parameterNumberName":"V-component_of_CURRENTS"},"data":[0,0,0,0,0,0,0,0,0,0,0,0,0,0,0,0,0,0,0,0,0,0,0,0,0,0,0,0,0,0,0,0,0,0,0,0,0,0,0,0,0,0,0,0,0,0,0,0,0,0,0,0,0,0,0,0,0,0,0.0264,0.0264,0,0.0259,0.0259,0.0259,0.0241,0.0241,0.0241,0.024,0.0228,0.0228,0.0228,0,0,0,0,0,0,0,0,0,0,0,0,0,0.0269,0.0269,0.0264,0.0264,0.0264,0.0259,0.0259,0.0259,0.0241,0.0241,0.024,0.024,0.0228,0.0228,0.0228,0,0,0,0,0,0,0,0,0,0,0,0,0,0.0265,0.0269,0.0264,0.0255,0.0254,0.0259,0.0259,0.0259,0.0241,0.0241,0.024,0.024,0.0228,0.0228,0.0228,0.0239,0,0,0.0228,0.0228,0,0,0,0,0,0,0,0,0.0266,0.0265,0.0256,0.0256,0.0255,0.0251,0.0256,0.0252,0.0242,0.0246,0.024,0.024,0.0235,0.0235,0.0235,0.0238,0.0238,0.0228,0.0228,0.0228,0.0228,0,0,0,0,0,0,0,0.0266,0.0265,0.0262,0.0256,0.0255,0.0255,0.0253,0.0255,0.0243,0.0246,0.0244,0.0244,0.0235,0.0235,0.0234,0.0237,0.0228,0.0228,0.0228,0.0228,0.0248,0.0249,0,0,0,0,0,0,0.0267,0.0266,0.0262,0.0262,0.0259,0.0255,0.0254,0.0252,0.0243,0.0242,0.0245,0.0244,0.0235,0.0234,0.0234,0.0253,0.0228,0.0228,0.0228,0.0248,0.0249,0.0249,0,0,0,0,0,0,0.0267,0.0267,0.0262,0.0264,0.0263,0.0256,0.0254,0.0252,0.025,0.0243,0.0241,0.0244,0.0234,0.0234,0.0238,0.0252,0.0228,0.0228,0.0247,0.0248,0.0249,0.0288,0,0,0,0,0,0,0.0268,0.0267,0.0267,0.0264,0.0263,0.027,0.0255,0.0253,0.0251,0.025,0.0242,0.024,0.0234,0.0238,0.0238,0.0252,0.0228,0.0247,0.0248,0.0249,0.0286,0.029,0.0293,0,0,0,0,0,0.0268,0.0276,0.0267,0.0266,0.0263,0.027,0.027,0.0262,0.0252,0.0257,0.025,0.024,0.0244,0.0239,0.0238,0.0252,0.0246,0.0247,0.0249,0.0284,0.0289,0.0293,0,0,0,0,0,0,0.0282,0.0274,0.0265,0.027,0.027,0.0267,0.0272,0.0264,0.0263,0.026,0.0249,0.0247,0.0256,0.0249,0.0243,0.0261,0.0243,0.0245,0.027,0.0275,0.0279,0.0287,0.0228,0,0,0,0,0,0.0284,0.0284,0.0278,0.0283,0.0284,0.0276,0.0277,0.0272,0.027,0.0269,0.0264,0.026,0.0262,0.0263,0.0263,0.0275,0.0264,0.0283,0.0286,0.029,0.0296,0.0298,0.0303,0.0253,0.0253,0.0253,0,0,0.0292,0.0287,0.0288,0.0286,0.0284,0.0296,0.0276,0.0281,0.029,0.0268,0.0281,0.0273,0.0267,0.028,0.0283,0.0276,0.0295,0.0291,0.0294,0.0299,0.03,0.0305,0.0309,0.0254,0.0254,0.0254,0,0,0.0316,0.0303,0.0314,0.0314,0.0312,0.0311,0.0313,0.031,0.0307,0.0317,0.0304,0.0305,0.0308,0.0309,0.0309,0.0334,0.0314,0.0331,0.036,0.0362,0.0366,0.037,0.035,0.0352,0.0334,0.0335,0.0335,0,0.0324,0.0336,0.032,0.0332,0.0339,0.032,0.0339,0.0336,0.0336,0.0342,0.0326,0.0335,0.0325,0.0345,0.035,0.0344,0.0332,0.0343,0.0367,0.037,0.0374,0.0353,0.0354,0.0337,0.0336,0.0336,0.0336,0,0.0358,0.0366,0.0375,0.0381,0.0387,0.04,0.0394,0.0397,0.039,0.0391,0.0402,0.0388,0.0394,0.039,0.0376,0.0396,0.0376,0.037,0.0357,0.0381,0.0357,0.0358,0.0339,0.0339,0.0338,0.0338,0,0,0.0381,0.0396,0.0399,0.041,0.0413,0.0423,0.0438,0.0452,0.0468,0.0459,0.0481,0.0474,0.046,0.0459,0.0441,0.044,0.0441,0.0415,0.0414,0.0397,0.043,0.0427,0.0427,0.044,0.0441,0.0441,0.04,0,0.0413,0.0449,0.0447,0.0481,0.0498,0.0487,0.0507,0.0514,0.0515,0.053,0.0513,0.0526,0.0488,0.049,0.0483,0.0459,0.0447,0.0452,0.0408,0.0406,0.0403,0.043,0.0465,0.0433,0.0401,0.0401,0.0401,0,0.0446,0.0466,0.0506,0.0531,0.0538,0.0554,0.0579,0.0596,0.0608,0.0608,0.061,0.0593,0.0589,0.0551,0.0518,0.0523,0.0477,0.0451,0.0449,0.0435,0.0406,0.0406,0.0435,0.0433,0.0402,0.0402,0.0402,0,0.047,0.0505,0.0539,0.0547,0.0574,0.0589,0.0605,0.0623,0.0646,0.0659,0.0676,0.066,0.0657,0.061,0.0545,0.0533,0.0504,0.0481,0.0431,0.0428,0.0445,0.0445,0.0472,0.0452,0.0453,0.0453,0.0453,0,0.0499,0.0524,0.0553,0.057,0.0614,0.062,0.0668,0.0677,0.0705,0.0748,0.0718,0.0739,0.0673,0.0643,0.0571,0.0509,0.0522,0.0442,0.0427,0.0458,0.0459,0.0446,0.0433,0.0451,0.0451,0.0452,0.0452,0,0.0512,0.0532,0.0573,0.0611,0.0624,0.0656,0.0706,0.0743,0.0761,0.0813,0.082,0.0805,0.077,0.0693,0.0619,0.0551,0.049,0.0454,0.0483,0.0473,0.0426,0.0413,0.0429,0.0429,0.0396,0.0396,0.0396,0,0.0521,0.0544,0.0601,0.0631,0.0647,0.0696,0.0734,0.0767,0.081,0.0857,0.0886,0.0865,0.0861,0.075,0.0637,0.0522,0.0493,0.0463,0.0451,0.044,0.0414,0.0424,0.0424,0.0476,0.0477,0.0477,0.0478,0,0.0535,0.0557,0.0594,0.0658,0.0702,0.076,0.0815,0.0857,0.0906,0.0952,0.0998,0.1,0.0902,0.082,0.0664,0.0575,0.0493,0.0467,0.0462,0.049,0.0498,0.0486,0.0466,0.0481,0.0481,0.0481,0.0481,0.048,0.0545,0.0575,0.0627,0.0687,0.0743,0.0813,0.0865,0.093,0.1005,0.108,0.1078,0.11,0.0993,0.0794,0.0683,0.0526,0.0513,0.048,0.0464,0.0474,0.0491,0.047,0.0468,0.0468,0.0468,0.0467,0.0467,0,0.0554,0.0594,0.0651,0.0726,0.0788,0.0816,0.0912,0.0971,0.1062,0.1134,0.1179,0.1156,0.1029,0.0868,0.0664,0.0562,0.0526,0.0501,0.0532,0.0529,0.0519,0.054,0.0549,0.0549,0.0549,0.0549,0.0549,0.0549,0.056,0.0611,0.0645,0.0745,0.0799,0.0882,0.0939,0.1032,0.1106,0.1198,0.1229,0.1244,0.1159,0.0861,0.0669,0.0599,0.0561,0.0538,0.0505,0.0505,0.0503,0.05,0.0519,0.0523,0.0523,0.0553,0.0553,0.0553]}],[{"header":{"parameterUnit":"m.s-1","parameterCategory":2,"la1":30.2991,"la2":30.254,"lo1":-89.0895,"lo2":-89.0444,"dy":0.0017,"dx":0.0017,"nx":28,"ny":28,"refTime":"2025-06-15T21:00:00:Z","depth":"2","parameterNumber":2,"parameterNumberName":"U-component_of_CURRENTS"},"data":[0,0,0,0,0,0,0,0,0,0,0,0,0,0,0,0,0,0,0,0,0,0,0,0,0,0,0,0,0,0,0,0,0,0,0,0,0,0,0,0,0,0,0,0,0,0,0,0,0,0,0,0,0,0,0,0,0,0,0.1684,0.1684,0,0.1663,0.1663,0.1662,0.1645,0.1645,0.1645,0.1645,0.1674,0.1674,0.1675,0,0,0,0,0,0,0,0,0,0,0,0,0,0.168,0.168,0.1684,0.1684,0.1684,0.1663,0.1663,0.1662,0.1645,0.1645,0.1645,0.1645,0.1674,0.1674,0.1675,0,0,0,0,0,0,0,0,0,0,0,0,0,0.167,0.168,0.1684,0.1676,0.1675,0.1664,0.1663,0.1662,0.1645,0.1645,0.1645,0.1646,0.1673,0.1674,0.1675,0.1677,0,0,0.1678,0.1679,0,0,0,0,0,0,0,0,0.167,0.167,0.1677,0.1676,0.1675,0.166,0.1672,0.1671,0.1645,0.1653,0.1645,0.1646,0.1676,0.1677,0.1667,0.1678,0.168,0.1678,0.1679,0.1679,0.1679,0,0,0,0,0,0,0,0.1671,0.167,0.1672,0.1677,0.1676,0.1664,0.1662,0.1671,0.1662,0.1652,0.1652,0.1655,0.1675,0.1666,0.1667,0.168,0.1678,0.1679,0.168,0.168,0.1719,0.172,0,0,0,0,0,0,0.1682,0.1671,0.1673,0.1672,0.1677,0.1664,0.1662,0.1662,0.166,0.1661,0.1655,0.1654,0.1664,0.1666,0.1668,0.1714,0.1679,0.168,0.1681,0.1719,0.1719,0.172,0,0,0,0,0,0,0.1682,0.1682,0.1674,0.1674,0.1672,0.1664,0.1664,0.1661,0.1666,0.1663,0.1663,0.1663,0.1664,0.1667,0.1683,0.1714,0.1681,0.1681,0.1718,0.1719,0.172,0.1778,0,0,0,0,0,0,0.1682,0.1682,0.1677,0.1675,0.1673,0.1673,0.1664,0.1661,0.1668,0.1667,0.167,0.1672,0.1665,0.1682,0.1684,0.1715,0.1682,0.1718,0.1719,0.1719,0.1776,0.1781,0.1785,0,0,0,0,0,0.1682,0.1673,0.1677,0.1677,0.1669,0.1673,0.1671,0.1663,0.1669,0.1668,0.1672,0.1673,0.1689,0.1683,0.1686,0.1717,0.1717,0.1718,0.1719,0.1774,0.178,0.1785,0,0,0,0,0,0,0.1663,0.167,0.1675,0.1667,0.1676,0.1672,0.1672,0.1674,0.1675,0.1681,0.1679,0.168,0.1709,0.1699,0.1692,0.1728,0.1704,0.1706,0.1744,0.175,0.1755,0.1759,0.1683,0,0,0,0,0,0.166,0.1668,0.1669,0.1672,0.1676,0.168,0.168,0.1681,0.1686,0.1686,0.1689,0.1695,0.1712,0.172,0.1725,0.1745,0.1734,0.1764,0.1769,0.1774,0.1777,0.1795,0.1802,0.1723,0.1723,0.1723,0,0,0.1659,0.1665,0.1669,0.1671,0.168,0.1683,0.168,0.1692,0.17,0.1692,0.1705,0.1716,0.172,0.1742,0.1754,0.1741,0.1786,0.1775,0.1779,0.178,0.1797,0.1805,0.1811,0.1724,0.1724,0.1724,0,0,0.166,0.1666,0.1667,0.1676,0.169,0.1695,0.1705,0.1709,0.1714,0.1734,0.1732,0.1758,0.1775,0.178,0.1789,0.1822,0.1813,0.1829,0.1858,0.1876,0.1883,0.1889,0.187,0.1874,0.1829,0.1829,0.1829,0,0.1654,0.1658,0.1669,0.1673,0.1682,0.1706,0.1708,0.1719,0.1728,0.174,0.1748,0.179,0.1795,0.1829,0.1841,0.1836,0.1832,0.184,0.1884,0.189,0.1895,0.1875,0.1878,0.1832,0.1832,0.1832,0.1831,0,0.165,0.1658,0.1667,0.1683,0.169,0.1706,0.1723,0.1739,0.1765,0.1778,0.1824,0.1838,0.1859,0.1875,0.1874,0.1915,0.1894,0.1892,0.1874,0.1907,0.1882,0.1885,0.1836,0.1835,0.1835,0.1834,0,0,0.1625,0.1655,0.1659,0.1664,0.1699,0.1699,0.1735,0.176,0.1782,0.182,0.1848,0.1899,0.1914,0.1923,0.193,0.1955,0.1987,0.1945,0.1945,0.1933,0.2006,0.1923,0.1917,0.2002,0.2003,0.2004,0.1969,0,0.1621,0.1622,0.1645,0.1659,0.166,0.1701,0.1729,0.176,0.1798,0.1828,0.1878,0.1907,0.193,0.1946,0.1981,0.1982,0.1999,0.1995,0.1969,0.1968,0.1896,0.192,0.1772,0.1723,0.1971,0.1971,0.1972,0,0.1598,0.1605,0.1611,0.1642,0.1648,0.1666,0.1713,0.1739,0.1801,0.1833,0.1889,0.1918,0.1963,0.1977,0.2018,0.2016,0.2017,0.2024,0.2022,0.1927,0.189,0.1732,0.1718,0.1976,0.1976,0.1975,0.1975,0,0.1554,0.1577,0.1582,0.1592,0.1634,0.1654,0.1683,0.1743,0.1769,0.183,0.1857,0.1921,0.1947,0.1982,0.2003,0.2013,0.2035,0.2039,0.1963,0.1956,0.1814,0.1792,0.2068,0.2069,0.2069,0.2069,0.2069,0,0.1532,0.1534,0.1562,0.1565,0.1581,0.1618,0.1653,0.1694,0.1755,0.1782,0.1851,0.1878,0.1957,0.1981,0.1998,0.1979,0.2026,0.1968,0.1949,0.1826,0.1807,0.2017,0.2011,0.2067,0.2068,0.2068,0.2068,0,0.149,0.1512,0.1513,0.1549,0.1562,0.157,0.163,0.1651,0.1715,0.175,0.1768,0.1847,0.1873,0.1923,0.1962,0.1952,0.195,0.193,0.1763,0.1726,0.1857,0.1855,0.1838,0.1834,0.1832,0.183,0.1828,0,0.1472,0.1467,0.1489,0.1492,0.1515,0.1538,0.1561,0.1627,0.1647,0.1721,0.1725,0.1776,0.1789,0.1804,0.1797,0.1785,0.1874,0.1642,0.1639,0.1854,0.1838,0.184,0.1841,0.1466,0.1461,0.1457,0.1454,0,0.1438,0.1448,0.1452,0.1452,0.1466,0.1477,0.1508,0.1518,0.1588,0.1609,0.1629,0.1644,0.1659,0.1582,0.1574,0.156,0.1633,0.1562,0.1835,0.1549,0.1501,0.1486,0.15,0.142,0.1424,0.1426,0.1428,0.1429,0.1417,0.1406,0.141,0.1404,0.1413,0.1405,0.1392,0.1417,0.1425,0.1432,0.1495,0.1454,0.1467,0.1368,0.1317,0.1285,0.1416,0.1367,0.138,0.1397,0.1362,0.1313,0.1188,0.119,0.1192,0.1193,0.1195,0,0.1376,0.1366,0.1358,0.1339,0.1315,0.1346,0.1343,0.1308,0.1276,0.129,0.1286,0.1157,0.1084,0.1099,0.0987,0.0981,0.0991,0.0949,0.0956,0.099,0.102,0.0968,0.0688,0.0687,0.0685,0.0684,0,0,0.1355,0.1323,0.1307,0.1243,0.1232,0.1179,0.1162,0.1118,0.1099,0.1036,0.0989,0.1045,0.106,0.086,0.0834,0.0738,0.0863,0.0708,0.1115,0.1157,0.1185,0.1261,0.1219,0,0,0,0,0]},{"header":{"parameterUnit":"m.s-1","parameterCategory":2,"la1":30.2991,"la2":30.254,"lo1":-89.0895,"lo2":-89.0444,"dy":0.0017,"dx":0.0017,"nx":28,"ny":28,"refTime":"2025-06-15T21:00:00:Z","depth":"2","parameterNumber":3,"parameterNumberName":"V-component_of_CURRENTS"},"data":[0,0,0,0,0,0,0,0,0,0,0,0,0,0,0,0,0,0,0,0,0,0,0,0,0,0,0,0,0,0,0,0,0,0,0,0,0,0,0,0,0,0,0,0,0,0,0,0,0,0,0,0,0,0,0,0,0,0,0.0164,0.0164,0,0.0157,0.0157,0.0157,0.0145,0.0145,0.0145,0.0145,0.0135,0.0134,0.0134,0,0,0,0,0,0,0,0,0,0,0,0,0,0.017,0.017,0.0164,0.0164,0.0164,0.0157,0.0157,0.0157,0.0146,0.0145,0.0145,0.0145,0.0135,0.0134,0.0134,0,0,0,0,0,0,0,0,0,0,0,0,0,0.0165,0.017,0.0164,0.0158,0.0157,0.0157,0.0157,0.0157,0.0146,0.0145,0.0145,0.0145,0.0135,0.0134,0.0134,0.0138,0,0,0.0134,0.0134,0,0,0,0,0,0,0,0,0.0166,0.0165,0.0159,0.0158,0.0157,0.0152,0.0155,0.0151,0.0146,0.0149,0.0145,0.0145,0.0141,0.014,0.0139,0.0138,0.0137,0.0134,0.0134,0.0133,0.0133,0,0,0,0,0,0,0,0.0166,0.0165,0.0161,0.0159,0.0158,0.0156,0.0155,0.0154,0.0146,0.0149,0.0148,0.0148,0.014,0.0139,0.0138,0.0137,0.0134,0.0134,0.0133,0.0133,0.0138,0.0138,0,0,0,0,0,0,0.0168,0.0166,0.0161,0.0161,0.0162,0.0156,0.0155,0.0154,0.0146,0.0145,0.0149,0.0148,0.0139,0.0139,0.0138,0.0151,0.0133,0.0133,0.0133,0.0138,0.0138,0.0138,0,0,0,0,0,0,0.0168,0.0168,0.0161,0.0163,0.0163,0.0157,0.0155,0.0154,0.0153,0.0146,0.0144,0.0149,0.0139,0.0138,0.014,0.015,0.0133,0.0133,0.0137,0.0138,0.0138,0.0172,0,0,0,0,0,0,0.0168,0.0168,0.0169,0.0164,0.0163,0.0167,0.0155,0.0154,0.0153,0.0152,0.0146,0.0144,0.0139,0.014,0.014,0.015,0.0133,0.0137,0.0138,0.0138,0.0171,0.0174,0.0176,0,0,0,0,0,0.0169,0.0175,0.0169,0.0169,0.0164,0.0168,0.0167,0.0162,0.0153,0.0158,0.0151,0.0145,0.0142,0.014,0.014,0.015,0.0137,0.0137,0.0138,0.017,0.0173,0.0176,0,0,0,0,0,0,0.0182,0.0174,0.0168,0.0172,0.0171,0.0166,0.017,0.0163,0.0161,0.0159,0.0149,0.0148,0.0153,0.0145,0.0143,0.0151,0.0138,0.0138,0.0162,0.0165,0.0168,0.0179,0.0133,0,0,0,0,0,0.0185,0.0185,0.0179,0.0183,0.0183,0.0175,0.0175,0.0171,0.0168,0.0166,0.0161,0.0155,0.0154,0.0155,0.0152,0.0158,0.0149,0.0163,0.0166,0.0168,0.0176,0.0173,0.0176,0.014,0.014,0.014,0,0,0.0192,0.0187,0.0188,0.0186,0.0183,0.0192,0.0175,0.0178,0.0186,0.0166,0.0175,0.0165,0.0158,0.0165,0.0166,0.016,0.0171,0.0169,0.0171,0.0178,0.0174,0.0178,0.0181,0.014,0.014,0.014,0,0,0.0211,0.0201,0.021,0.021,0.0207,0.0205,0.0206,0.0202,0.0199,0.0205,0.0192,0.019,0.0188,0.0187,0.0185,0.02,0.0185,0.0196,0.0222,0.0219,0.0222,0.0224,0.0208,0.0209,0.0199,0.0199,0.0199,0,0.022,0.0229,0.0214,0.0224,0.0229,0.0213,0.0228,0.0225,0.0222,0.0226,0.0213,0.0212,0.0201,0.0214,0.0217,0.0208,0.0198,0.0212,0.0223,0.0225,0.0228,0.021,0.0211,0.0201,0.02,0.02,0.02,0,0.0245,0.0254,0.026,0.0266,0.0269,0.0279,0.0274,0.0276,0.0268,0.0267,0.0273,0.0256,0.0257,0.025,0.0238,0.025,0.0235,0.0226,0.0217,0.0234,0.0214,0.0214,0.0203,0.0203,0.0202,0.0202,0,0,0.0265,0.0276,0.028,0.0291,0.0292,0.03,0.0311,0.0321,0.0336,0.0323,0.034,0.0328,0.0314,0.0311,0.0292,0.0287,0.0285,0.0265,0.0264,0.0253,0.0269,0.0269,0.0269,0.028,0.028,0.028,0.0246,0,0.0291,0.032,0.0318,0.035,0.0364,0.0355,0.0372,0.0376,0.0375,0.0386,0.0365,0.0372,0.0339,0.0338,0.0328,0.0301,0.0289,0.0295,0.0251,0.025,0.0252,0.027,0.0286,0.0258,0.0246,0.0246,0.0246,0,0.0318,0.0335,0.0369,0.0393,0.04,0.0416,0.0437,0.0452,0.0459,0.0457,0.0453,0.0434,0.0424,0.039,0.0353,0.0358,0.0317,0.0289,0.0287,0.0279,0.0251,0.0241,0.0258,0.0246,0.0246,0.0246,0.0246,0,0.034,0.0371,0.04,0.0408,0.0432,0.0446,0.0462,0.0476,0.0497,0.0503,0.0515,0.0493,0.0487,0.0439,0.0375,0.0365,0.033,0.0309,0.0267,0.0265,0.0266,0.0265,0.028,0.028,0.028,0.028,0.028,0,0.0366,0.0389,0.0413,0.0429,0.0471,0.0476,0.0522,0.053,0.0553,0.059,0.0555,0.0569,0.05,0.0466,0.0398,0.0338,0.0345,0.0278,0.0264,0.0277,0.0277,0.0258,0.0256,0.0279,0.0279,0.028,0.028,0,0.038,0.0396,0.0434,0.0468,0.0481,0.0512,0.0561,0.0594,0.0609,0.0652,0.0655,0.0633,0.0593,0.0515,0.044,0.0377,0.0312,0.0284,0.0298,0.0287,0.024,0.024,0.0238,0.0238,0.0238,0.0238,0.0238,0,0.0388,0.0409,0.0461,0.0489,0.0505,0.0552,0.0588,0.0619,0.0657,0.0693,0.0715,0.0688,0.0676,0.0564,0.0458,0.0348,0.0319,0.0279,0.0267,0.0253,0.0239,0.0239,0.0239,0.0272,0.0272,0.0272,0.0272,0,0.0404,0.0424,0.0457,0.0516,0.0558,0.0613,0.0665,0.0703,0.0746,0.078,0.0812,0.0804,0.0709,0.0615,0.0469,0.0387,0.03,0.028,0.0271,0.0285,0.0284,0.027,0.0269,0.0274,0.0274,0.0274,0.0274,0.0273,0.0416,0.0442,0.0489,0.0544,0.0598,0.0663,0.0711,0.0767,0.0831,0.0883,0.0877,0.0866,0.0759,0.058,0.0456,0.0319,0.0323,0.0262,0.0262,0.0262,0.0277,0.0277,0.0267,0.0266,0.0266,0.0266,0.0266,0,0.0425,0.046,0.0513,0.0581,0.0639,0.0668,0.0755,0.0802,0.0875,0.092,0.0946,0.0833,0.0734,0.0598,0.0416,0.0304,0.0283,0.0249,0.0257,0.0257,0.0256,0.0271,0.0259,0.0258,0.0258,0.0258,0,0,0.0432,0.0477,0.0506,0.0598,0.0649,0.0727,0.0779,0.085,0.09,0.0939,0.0935,0.0925,0.0774,0.0634,0.0488,0.0381,0.0336,0.0345,0.0365,0.0393,0.0394,0.0281,0.0307,0,0,0,0,0]}],[{"header":{"parameterUnit":"m.s-1","parameterCategory":2,"la1":30.2991,"la2":30.254,"lo1":-89.0895,"lo2":-89.0444,"dy":0.0017,"dx":0.0017,"nx":28,"ny":28,"refTime":"2025-06-15T21:00:00:Z","depth":"4","parameterNumber":2,"parameterNumberName":"U-component_of_CURRENTS"},"data":[0,0,0,0,0,0,0,0,0,0,0,0,0,0,0,0,0,0,0,0,0,0,0,0,0,0,0,0,0,0,0,0,0,0,0,0,0,0,0,0,0,0,0,0,0,0,0,0,0,0,0,0,0,0,0,0,0,0,0.0777,0.0777,0,0.0789,0.0789,0.0789,0.0811,0.0812,0.0812,0.0813,0.0838,0.0839,0.0839,0,0,0,0,0,0,0,0,0,0,0,0,0,0.0792,0.0791,0.0776,0.0777,0.0777,0.0789,0.0789,0.0789,0.0811,0.0812,0.0812,0.0813,0.0838,0.0839,0.0839,0,0,0,0,0,0,0,0,0,0,0,0,0,0.0792,0.0791,0.0776,0.079,0.0792,0.0789,0.0789,0.0789,0.0811,0.0812,0.0813,0.0813,0.0838,0.0838,0.0839,0.0824,0,0,0.084,0.084,0,0,0,0,0,0,0,0,0.0792,0.0791,0.0788,0.079,0.0791,0.0801,0.0804,0.0802,0.0811,0.0802,0.0813,0.0814,0.0827,0.0828,0.0827,0.0825,0.0826,0.084,0.084,0.084,0.084,0,0,0,0,0,0,0,0.0792,0.0791,0.078,0.0788,0.079,0.0804,0.0804,0.0804,0.0809,0.0803,0.0805,0.0808,0.0828,0.0827,0.0828,0.0827,0.084,0.084,0.084,0.084,0.0889,0.089,0,0,0,0,0,0,0.0791,0.079,0.078,0.0781,0.0795,0.0803,0.0803,0.0796,0.0809,0.0812,0.0808,0.0809,0.0826,0.0827,0.0829,0.0878,0.084,0.084,0.084,0.0888,0.0889,0.0891,0,0,0,0,0,0,0.0791,0.0789,0.0779,0.0788,0.0788,0.0801,0.0793,0.0796,0.0819,0.0813,0.0816,0.0832,0.0826,0.0828,0.0853,0.0877,0.084,0.084,0.0887,0.0888,0.089,0.0934,0,0,0,0,0,0,0.0791,0.0789,0.0792,0.0787,0.0787,0.0792,0.0792,0.0795,0.0819,0.0822,0.0834,0.0835,0.0827,0.0852,0.0853,0.0876,0.0841,0.0885,0.0887,0.0889,0.0931,0.0937,0.0942,0,0,0,0,0,0.0791,0.0787,0.0792,0.0791,0.0787,0.0793,0.0794,0.0806,0.082,0.083,0.0844,0.0836,0.0867,0.0853,0.0854,0.0878,0.0884,0.0887,0.0889,0.0929,0.0936,0.0942,0,0,0,0,0,0,0.0805,0.0789,0.0794,0.0788,0.0799,0.0798,0.0811,0.082,0.0839,0.085,0.0847,0.085,0.0884,0.0874,0.0859,0.0899,0.0875,0.0878,0.0905,0.0912,0.0917,0.0912,0.0841,0,0,0,0,0,0.0807,0.0797,0.0795,0.0798,0.0803,0.0813,0.0822,0.083,0.0842,0.0852,0.0861,0.0874,0.0889,0.0896,0.0905,0.0921,0.0918,0.0938,0.0944,0.0948,0.0945,0.0974,0.0982,0.0899,0.0899,0.0899,0,0,0.0814,0.0807,0.0803,0.0801,0.0811,0.0819,0.0821,0.084,0.0856,0.0851,0.0884,0.0897,0.09,0.0924,0.0937,0.0921,0.097,0.0952,0.0956,0.095,0.0978,0.0986,0.0993,0.0901,0.09,0.09,0,0,0.082,0.082,0.0813,0.0821,0.0836,0.084,0.0852,0.0865,0.0883,0.0912,0.0917,0.0944,0.0964,0.0967,0.0972,0.1012,0.1004,0.1022,0.1038,0.1067,0.1074,0.108,0.1084,0.109,0.1018,0.1018,0.1018,0,0.0838,0.082,0.0818,0.0821,0.0833,0.0854,0.0863,0.0881,0.0904,0.0921,0.0932,0.0978,0.0983,0.1007,0.1023,0.1024,0.1033,0.1012,0.1074,0.108,0.1085,0.1088,0.1094,0.102,0.102,0.102,0.102,0,0.0829,0.0831,0.0835,0.0839,0.0853,0.0868,0.0888,0.0916,0.0947,0.0963,0.1011,0.1023,0.1049,0.1058,0.1053,0.1093,0.1084,0.1083,0.1056,0.1096,0.1096,0.1102,0.1024,0.1023,0.1022,0.1022,0,0,0.0836,0.0827,0.0834,0.0837,0.0865,0.0871,0.0911,0.0941,0.097,0.1009,0.1043,0.1079,0.1096,0.1102,0.1105,0.1123,0.1169,0.1121,0.1122,0.1122,0.1223,0.1131,0.1127,0.1187,0.1188,0.1189,0.1206,0,0.0839,0.0831,0.0835,0.0853,0.0853,0.0889,0.092,0.0956,0.0996,0.1035,0.1067,0.1104,0.111,0.1131,0.1155,0.1169,0.1187,0.1164,0.1186,0.1186,0.1097,0.1132,0.1194,0.121,0.1211,0.1212,0.1212,0,0.083,0.0824,0.0828,0.0847,0.0855,0.0879,0.0934,0.0964,0.1024,0.1058,0.1107,0.1133,0.1173,0.1173,0.1224,0.1214,0.1224,0.1228,0.1229,0.1129,0.1104,0.1162,0.1222,0.1221,0.1221,0.122,0.1219,0,0.0814,0.0824,0.0824,0.0831,0.0858,0.0886,0.0917,0.0977,0.1011,0.1077,0.1113,0.1164,0.1203,0.1231,0.1256,0.125,0.1299,0.1291,0.1212,0.1205,0.1263,0.1257,0.1324,0.1324,0.1324,0.1324,0.1324,0,0.0801,0.0808,0.0819,0.082,0.0846,0.0874,0.0923,0.0965,0.1027,0.1065,0.1126,0.116,0.1226,0.1261,0.1269,0.1256,0.1318,0.1215,0.1207,0.1281,0.1276,0.1267,0.126,0.1325,0.1325,0.1324,0.1324,0,0.0783,0.0787,0.0792,0.0819,0.0836,0.0859,0.0926,0.0953,0.1023,0.1076,0.1101,0.1179,0.1222,0.1261,0.1303,0.1267,0.1262,0.1241,0.1308,0.1304,0.1142,0.1137,0.1147,0.1144,0.1141,0.1139,0.1137,0,0.0766,0.0761,0.0789,0.0798,0.0816,0.0857,0.0883,0.095,0.0977,0.1075,0.1086,0.1159,0.1201,0.1181,0.123,0.1228,0.1215,0.1198,0.1171,0.1134,0.1126,0.1126,0.1124,0.1133,0.1132,0.1132,0.1131,0,0.074,0.0757,0.076,0.0774,0.0799,0.0819,0.0862,0.0875,0.0949,0.1022,0.1045,0.1063,0.1104,0.1126,0.1135,0.1133,0.1199,0.1171,0.1176,0.1151,0.1118,0.1112,0.1114,0.1122,0.1124,0.1124,0.1125,0,0.0732,0.0726,0.073,0.074,0.0767,0.0765,0.0795,0.0814,0.0848,0.0945,0.0953,0.1023,0.1095,0.1077,0.1086,0.1075,0.1054,0.101,0.1023,0.1033,0.0988,0.0929,0.0869,0,0,0,0,0,0.0714,0.0691,0.0693,0.0686,0.071,0.0726,0.0767,0.0795,0.0868,0.0855,0.0899,0.0927,0.0942,0.0978,0.0944,0.1034,0.1059,0.0988,0.1015,0.1073,0.1083,0.104,0,0,0,0,0,0,0.0696,0.0693,0.0671,0.064,0.0633,0.0646,0.0671,0.0717,0.0709,0.0791,0.0804,0.0865,0.0895,0.0956,0.0927,0.0937,0.093,0.1031,0.1028,0.1067,0.1076,0.1085,0.1044,0,0,0,0,0]},{"header":{"parameterUnit":"m.s-1","parameterCategory":2,"la1":30.2991,"la2":30.254,"lo1":-89.0895,"lo2":-89.0444,"dy":0.0017,"dx":0.0017,"nx":28,"ny":28,"refTime":"2025-06-15T21:00:00:Z","depth":"4","parameterNumber":3,"parameterNumberName":"V-component_of_CURRENTS"},"data":[0,0,0,0,0,0,0,0,0,0,0,0,0,0,0,0,0,0,0,0,0,0,0,0,0,0,0,0,0,0,0,0,0,0,0,0,0,0,0,0,0,0,0,0,0,0,0,0,0,0,0,0,0,0,0,0,0,0,0.0165,0.0165,0,0.0163,0.0163,0.0163,0.0158,0.0158,0.0158,0.0158,0.0156,0.0156,0.0156,0,0,0,0,0,0,0,0,0,0,0,0,0,0.0155,0.0155,0.0165,0.0165,0.0165,0.0163,0.0163,0.0163,0.0158,0.0158,0.0158,0.0158,0.0156,0.0156,0.0156,0,0,0,0,0,0,0,0,0,0,0,0,0,0.0156,0.0155,0.0165,0.0163,0.0162,0.0163,0.0163,0.0163,0.0158,0.0158,0.0158,0.0158,0.0156,0.0156,0.0156,0.0159,0,0,0.0156,0.0156,0,0,0,0,0,0,0,0,0.0156,0.0157,0.0163,0.0163,0.0163,0.0161,0.0159,0.0162,0.0158,0.016,0.0158,0.0158,0.0158,0.0158,0.0157,0.0158,0.0158,0.0156,0.0156,0.0156,0.0156,0,0,0,0,0,0,0,0.0156,0.0157,0.0164,0.0163,0.0163,0.0159,0.0159,0.0159,0.0159,0.0159,0.0159,0.016,0.0158,0.0157,0.0157,0.0158,0.0156,0.0156,0.0156,0.0156,0.0158,0.0158,0,0,0,0,0,0,0.0158,0.0157,0.0164,0.0164,0.016,0.0159,0.0159,0.0161,0.0159,0.0159,0.016,0.0159,0.0157,0.0157,0.0157,0.0165,0.0156,0.0156,0.0156,0.0158,0.0158,0.0158,0,0,0,0,0,0,0.0158,0.0159,0.0164,0.016,0.0161,0.0159,0.0162,0.0161,0.0163,0.0159,0.0159,0.0161,0.0157,0.0157,0.0159,0.0164,0.0156,0.0156,0.0158,0.0158,0.0158,0.0176,0,0,0,0,0,0,0.0157,0.0159,0.0162,0.0161,0.0161,0.0167,0.0162,0.0162,0.0163,0.0163,0.0161,0.016,0.0157,0.0159,0.0159,0.0164,0.0157,0.0158,0.0158,0.0158,0.0176,0.0177,0.0178,0,0,0,0,0,0.0157,0.0162,0.0162,0.0163,0.0165,0.0167,0.0167,0.0165,0.0163,0.0165,0.0163,0.0161,0.0159,0.0159,0.0159,0.0165,0.0158,0.0158,0.0158,0.0175,0.0177,0.0178,0,0,0,0,0,0,0.0161,0.0162,0.0162,0.0168,0.0168,0.0166,0.0169,0.0167,0.0167,0.0167,0.0163,0.0162,0.0165,0.0162,0.0162,0.0164,0.0158,0.0158,0.0171,0.0172,0.0173,0.0181,0.0157,0,0,0,0,0,0.0163,0.0167,0.0167,0.0172,0.0173,0.0171,0.0172,0.0171,0.017,0.017,0.0169,0.0167,0.0165,0.0166,0.0164,0.0168,0.0159,0.017,0.0171,0.0172,0.0178,0.0163,0.0164,0.0158,0.0158,0.0158,0,0,0.0167,0.0168,0.0171,0.0173,0.0174,0.018,0.0171,0.0174,0.018,0.017,0.0178,0.0172,0.0167,0.017,0.0171,0.0168,0.0168,0.0172,0.0173,0.0178,0.0163,0.0164,0.0164,0.0158,0.0158,0.0158,0,0,0.0177,0.0177,0.0184,0.0186,0.0187,0.0187,0.0189,0.0189,0.0188,0.0194,0.0187,0.0184,0.0185,0.0181,0.0179,0.0185,0.0175,0.0184,0.0198,0.0184,0.0185,0.0185,0.0173,0.0172,0.0185,0.0185,0.0185,0,0.0181,0.0191,0.0186,0.0193,0.0199,0.0192,0.0203,0.0201,0.0202,0.0206,0.0199,0.0196,0.019,0.0192,0.0194,0.0189,0.018,0.0194,0.0186,0.0186,0.0186,0.0174,0.0173,0.0186,0.0186,0.0186,0.0186,0,0.0195,0.0205,0.021,0.0218,0.0222,0.0229,0.0228,0.0231,0.023,0.023,0.0231,0.0218,0.0218,0.0211,0.0207,0.0205,0.0198,0.0189,0.0184,0.0188,0.0175,0.0173,0.0187,0.0187,0.0187,0.0187,0,0,0.0204,0.0218,0.0221,0.0232,0.0237,0.0243,0.0251,0.0259,0.0269,0.026,0.0269,0.0257,0.025,0.0246,0.0233,0.0219,0.0209,0.0208,0.0206,0.0199,0.018,0.0181,0.0179,0.0198,0.0198,0.0198,0.0171,0,0.0219,0.024,0.0243,0.0267,0.0279,0.0278,0.0289,0.0293,0.0294,0.0299,0.0279,0.0283,0.0263,0.0263,0.0246,0.0223,0.0206,0.0218,0.0175,0.0174,0.0177,0.0178,0.0198,0.017,0.0169,0.0169,0.0169,0,0.0233,0.0247,0.0273,0.0297,0.0302,0.0316,0.0334,0.0345,0.0346,0.0345,0.0338,0.0323,0.0308,0.0285,0.0245,0.0254,0.0221,0.0195,0.0193,0.0188,0.0173,0.0164,0.0166,0.0166,0.0166,0.0166,0.0166,0,0.0244,0.027,0.0293,0.0301,0.0323,0.0337,0.0352,0.0361,0.0377,0.0376,0.0384,0.0358,0.0352,0.0305,0.0257,0.0252,0.0206,0.0191,0.0157,0.0157,0.0156,0.0156,0.0155,0.0155,0.0155,0.0155,0.0155,0,0.0257,0.0277,0.0302,0.0315,0.0349,0.0358,0.0393,0.04,0.0415,0.0438,0.0412,0.0415,0.0357,0.0324,0.0269,0.0215,0.0215,0.0163,0.0151,0.0164,0.0165,0.0154,0.0155,0.0154,0.0154,0.0154,0.0154,0,0.0262,0.0278,0.0309,0.0341,0.0355,0.038,0.0425,0.0448,0.0458,0.0484,0.0486,0.0463,0.0425,0.0361,0.029,0.024,0.018,0.0156,0.0181,0.017,0.0134,0.0136,0.0117,0.0117,0.0117,0.0117,0.0117,0,0.0265,0.0281,0.0328,0.0353,0.037,0.0411,0.0441,0.0467,0.0493,0.0514,0.0524,0.0499,0.0475,0.0377,0.0306,0.0205,0.0183,0.0147,0.0133,0.0141,0.0131,0.0133,0.0134,0.0117,0.0117,0.0117,0.0117,0,0.0271,0.0291,0.0317,0.0367,0.0406,0.0451,0.0494,0.0514,0.0546,0.0556,0.0555,0.0507,0.0465,0.0384,0.0309,0.0232,0.0169,0.0145,0.0144,0.0131,0.014,0.013,0.0132,0.0116,0.0116,0.0116,0.0116,0,0.0277,0.0297,0.0335,0.0379,0.0429,0.0475,0.0499,0.0531,0.0556,0.0574,0.0574,0.0526,0.0502,0.0399,0.0328,0.0258,0.0231,0.0191,0.0187,0.0187,0.0213,0.0234,0.0233,0,0,0,0,0,0.028,0.0302,0.0343,0.0393,0.0444,0.0474,0.0527,0.0548,0.0577,0.0579,0.0577,0.0536,0.0442,0.0403,0.0333,0.0317,0.0215,0.023,0.0165,0.0113,0.0114,0.0132,0,0,0,0,0,0,0.0281,0.0317,0.0338,0.0396,0.0432,0.0489,0.0525,0.0546,0.0547,0.0563,0.0516,0.0503,0.0414,0.0481,0.0326,0.0307,0.0251,0.0192,0.019,0.0113,0.0114,0.0114,0.0133,0,0,0,0,0]}]]